SCP
0 0 0 0 0 0 0 0 0 0 0 0 0 0 0 0 0 0 0 0 0 0 0 0 0 0 0 0 0 0 0 0 0 0 0 0 0 0 0 0 0 0 0 0 0 0 0 0 0 0 0 0 0 0
0 0 0 0 0 0 0 0 0 0 0 0 0 0 0 0 0 0 0 0 0 0 0 0 0 0 0 0 0 0 0 0 0 0 0 0 0 0 0 0 0 0 0 0 0 0 0 0 0 0 0 0 0 0
0 0 0 0 0 0 0 0 0 0 0 0 0 0 0 0 0 0 0 0 0 0 0 0 0 0 0 0 0 0 0 0 0 0 0 0 0 0 0 0 0 0 0 0 0 0 0 0 0 0 -0 0 0 0
0 0 0 0 0 0 0 0 0 0 0 0 0 0 0 0 0 0 0 0 0 0 0 0 0 0 0 0 0 0 0 0 0 0 0 0 0 0 0 0 0 0 0 0 0 0 0 0 0 0 0 0 0 0
0 0 0 0 0 0 0 0 0 0 0 0 0 0 0 0 0 0 0 0 0 0 0 0 -0 0 0 0 0 0 0 0 0 0 0 0 0 0 0 0 0 0 0 0 0 0 0 0 0 0 0 0 0 0
0 0 0 0 0 0 0 0 0 0 0 0 0 0 0 0 0 0 0 0 0 0 0 0 0 0 0 0 0 0 0 0 0 0 0 0 0 0 0 0 0 0 0 0 0 0 0 0 0 0 0 0 0 0
0 0 0 0 0 0 0 0 0 0 0 0 -0 -0 -0 0 0 0 0 0 0 0 0 0 0 0 0 0 0 0 0 0 0 0 0 0 0 0 0 0 -0 0 0 0 0 0 0 0 0 0 0 0 0 0
0 0 0 0 0 0 0 0 0 0 0 -0 -0 -0 0 0 0 0 0 0 0 0 0 0 0 0 0 0 0 0 0 0 0 0 0 0 0 0 0 -0 -0 0 0 0 0 0 0 0 0 0 0 0 0 0
0 0 0 0 0 0 0 0 0 0 0 0 0 0 0 0 0 0 0 0 -0 0 0 0 0 0 0 0 0 0 0 0 0 0 0 0 0 0 0 0 0 0 0 0 0 0 0 0 0 0 0 0 0 0
0 0 0 0 0 0 0 0 0 0 0 0 0 0 0 0 0 0 0 0 0 0 0 0 0 0 0 0 0 0 0 0 0 0 0 0 0 -0 -0 0 0 0 0 0 0 0 0 0 0 0 0 0 0 0
0 0 0 0 0 0 -0 -0 -0 -0 0 0 0 0 0 0 0 0 0 0 0 0 0 0 0 0 0 0 -0 0 0 0 0 0 0 0 0 0 0 0 0 0 0 0 0 0 0 0 0 0 0 0 0 0
-0 -0 -0 -0 -0 0 0 -0 -0 0 0 0 0 0 0 0 0 0 0 0 0 0 0 0 0 0 0 0 0 0 0 0 0 0 0 0 0 -0 -0 0 0 0 0 0 0 0 0 0 0 0 0 0 0 0
0 -0 -0 -0 -0 -0 0 0 0 0 0 0 0 0 0 0 0 0 0 0 0 0 -0 -0 -0 -0 -0 0 0 0 0 0 0 0 0 0 -0 -0 -0 0 -0 -0 -0 -0 -0 0 0 0 0 0 0 0 0 0
0 -0 -0 0 0 -0 0 0 0 0 0 0 0 0 0 0 0 -0 -0 0 0 0 0 0 0 0 0 0 -0 -0 -0 0 0 0 0 0 0 -0 -0 -0 -0 -0 0 -0 -0 0 0 0 0 0 0 0 0 0
-0 0 0 0 0 0 0 -0 -0 0 0 0 0 0 0 0 0 0 0 0 0 0 0 0 0 0 0 0 -0 -0 -0 0 0 0 0 -0 -0 -0 -0 -0 -0 0 -0 0 0 0 0 -0 -0 -0 -0 -0 -0 0
0 0 0 0 0 0 -0 0 0 0 0 0 0 0 0 0 0 0 0 0 -0 0 0 0 0 0 0 0 0 0 0 0 0 -0 -0 0 -0 -0 -0 -0 -0 0 0 0 0 -0 0 -0 -0 -0 -0 -0 0 0
0 0 0 0 0 0 0 0 0 0 0 0 0 0 0 0 0 0 0 0 -0 -0 0 0 -0 0 0 0 0 0 0 -0 -0 0 -0 -0 -0 -0 0 0 -0 0 0 -0 -0 -0 -0 -0 0 0 0 0 0 -0
0 0 0 0 0 0 0 0 0 0 0 0 0 0 0 0 0 0 0 0 0 -0 -0 -0 -0 -0 -0 0 0 0 -0 -0 0 0 -0 -0 0 -0 0 0 -0 0 -0 -0 -0 -0 -0 -0 -0 0 0 0 0 0
0 0 0 0 0 0 0 0 0 0 0 0 0 0 0 -0 -0 0 -0 0 0 -0 -0 -0 -0 -0 -0 -0 -0 -0 0 0 -0 -0 -0 0 0 0 0 0 0 0 -0 0 -0 0 0 -0 0 -0 -0 -0 -0 -0
-0 0 0 0 0 0 0 0 0 -0 0 -0 -0 -0 -0 -0 -0 -0 -0 0 -0 -0 -0 0 0 0 0 0 0 0 0 0 0 0 0 -0 0 -0 0 0 -0 -0 -0 -0 0 0 0 0 -0 -0 -0 -0 0 -0
-0 -0 -0 -0 -0 -0 -0 -0 -0 0 -0 -0 -0 -0 -0 -0 -0 -0 -0 -0 -0 0 0 0 -0 0 0 0 0 0 0 0 0 -0 0 0 -0 0 0 -0 0 0 -0 -0 0 -0 -0 -0 -0 -0 -0 -0 -0 -0
0 0 -0 -0 -0 -0 -0 -0 -0 -0 -0 -0 -0 -0 -0 -0 -0 -0 -0 -0 -0 -0 0 0 0 -0 0 0 0 0 0 0 -0 -0 -0 -0 -0 -0 -0 0 0 0 0 -0 -0 -0 0 0 0 0 0 -0 -0 -0
-0 0 0 0 0 0 0 0 0 0 0 0 0 0 0 0 0 0 0 0 0 0 0 0 0 0 0 0 0 -0 -0 -0 -0 0 0 -0 0 -0 -0 -0 -0 -0 -0 -0 -0 0 0 -0 -0 -0 -0 -0 -0 -0
0 0 0 0 0 0 0 0 0 0 0 0 0 0 0 0 0 0 0 0 0 0 0 0 0 0 0 0 -0 -0 -0 0 0 -0 -0 0 0 -0 -0 -0 -0 -0 -0 -0 -0 -0 -0 -0 -0 -0 -0 -0 -0 -0
0 0 0 0 0 0 0 0 0 0 0 0 0 0 0 0 0 0 0 0 0 0 0 0 0 0 0 0 0 0 0 -0 -0 -0 0 0 0 -0 -0 -0 -0 -0 0 0 -0 -0 -0 -0 0 0 0 0 0 0
0 0 0 0 0 0 0 0 0 0 0 0 0 0 0 0 0 0 0 0 0 0 0 -0 -0 -0 -0 -0 0 0 -0 -0 0 0 0 -0 0 -0 0 -0 -0 -0 0 0 0 0 0 0 0 0 0 0 0 0
0 0 0 0 0 0 0 0 0 0 0 0 0 0 0 0 0 0 0 0 0 0 0 0 0 -0 0 0 0 0 0 0 0 0 0 -0 -0 0 0 0 -0 -0 -0 0 0 0 0 0 0 0 0 0 0 0
0 0 0 0 0 0 0 0 0 0 0 0 0 0 0 0 0 0 0 0 0 0 0 0 0 -0 -0 -0 0 -0 -0 -0 -0 0 0 0 0 0 0 0 0 -0 0 0 0 0 0 0 0 0 0 0 0 0
0 0 0 0 0 0 0 0 0 0 0 0 0 0 0 0 0 0 0 0 0 -0 0 0 -0 -0 -0 -0 -0 -0 0 0 0 0 0 0 0 0 0 0 0 0 0 0 0 0 0 0 0 0 0 0 0 0
0 0 0 0 0 0 0 0 0 0 0 0 0 0 0 0 0 0 -0 -0 -0 0 0 0 -0 -0 0 0 0 0 0 0 0 0 0 0 0 0 0 0 0 0 0 0 0 0 0 0 0 0 0 0 0 0
0 0 0 0 0 0 0 -0 0 -0 -0 0 -0 0 0 -0 0 0 -0 0 0 -0 -0 -0 -0 0 -0 0 0 0 0 0 0 0 -0 0 0 0 -0 0 0 0 0 0 0 0 0 0 0 0 0 0 0 0
0 -0 -0 -0 -0 0 -0 -0 -0 -0 -0 -0 -0 -0 0 -0 -0 -0 -0 -0 0 0 0 -0 -0 -0 -0 -0 0 0 0 0 0 0 0 0 0 0 0 0 0 0 0 0 0 0 0 0 0 0 0 0 0 0
-0 -0 -0 -0 -0 -0 -0 -0 -0 -0 -0 -0 -0 -0 -0 -0 -0 -0 -0 0 0 0 0 0 0 -0 -0 -0 -0 0 0 0 0 0 0 0 0 0 0 0 0 0 0 0 0 0 0 0 0 0 0 0 0 0
Wind_Speed_500mb
47 47 42 39 40 40 36 31 30 32 29 27 31 38 34 33 29 33 35 32 37 26 47 38 32 28 23 10 4 15 16 4 8 2 6 8 8 12 10 11 13 14 11 8 6 6 15 10 4 13 5 4 5 3
45 43 42 42 43 43 40 36 31 33 34 31 27 30 32 29 31 33 35 30 32 44 26 24 41 44 42 39 22 10 8 9 5 4 4 6 5 2 8 13 5 13 15 11 17 13 7 5 9 11 8 12 15 12
45 44 43 41 43 41 38 37 35 34 32 32 30 27 30 31 30 32 35 36 27 35 54 66 65 69 62 55 47 18 9 9 4 19 8 5 9 0 5 9 7 4 5 8 2 5 7 3 3 8 9 8 7 6
45 43 43 42 44 42 41 39 39 35 33 31 29 29 29 32 28 32 35 38 33 15 12 18 16 19 28 38 47 63 59 51 44 38 4 6 4 1 5 6 5 9 4 5 6 6 4 9 4 8 10 12 11 10
42 40 41 43 42 44 44 41 37 33 32 31 29 27 27 25 28 22 23 31 34 26 10 23 51 53 44 50 47 49 43 47 42 11 10 7 8 8 8 3 12 11 9 7 10 13 6 15 23 20 21 18 16 15
41 47 46 42 39 39 40 37 35 33 32 31 35 34 29 23 21 17 6 18 31 29 11 7 23 44 33 36 42 55 62 48 38 20 13 16 35 13 8 17 13 31 47 54 46 51 49 54 42 40 42 38 29 30
32 31 32 33 33 31 31 34 37 30 32 31 25 26 28 28 23 19 5 6 13 21 8 12 12 14 19 14 42 54 42 44 41 22 17 23 13 14 7 33 8 19 22 35 45 42 55 61 37 32 34 35 34 33
33 32 33 33 32 34 34 29 31 29 26 28 28 29 26 23 22 27 26 27 12 12 10 6 8 14 2 5 9 21 34 38 27 23 8 12 23 20 16 7 22 50 64 77 81 87 90 76 71 62 51 47 52 47
33 31 33 34 35 35 33 30 32 33 29 29 26 23 23 20 15 24 17 17 19 14 6 7 5 7 18 9 5 10 15 5 14 7 21 17 10 15 13 36 48 57 61 65 69 72 75 76 79 74 71 65 65 64
38 34 29 28 29 30 34 37 33 31 30 29 31 17 9 9 15 17 16 14 14 13 13 9 10 9 13 12 7 9 5 5 3 9 9 9 23 66 86 86 84 82 81 75 63 60 69 75 72 69 68 63 58 61
31 33 31 28 26 26 28 32 39 37 46 44 17 11 16 12 24 12 8 8 10 8 15 16 33 16 20 2 2 6 5 4 5 7 3 6 9 21 62 77 83 84 86 94 96 98 94 84 70 69 70 56 52 54
32 34 37 37 36 34 29 36 37 52 47 35 20 22 17 9 8 5 7 5 8 8 11 11 15 19 10 14 8 7 5 0 9 4 5 7 8 23 34 44 46 56 56 62 68 83 83 84 77 69 58 57 48 41
25 25 27 33 36 43 47 38 43 59 33 38 12 11 10 8 8 9 11 6 6 8 13 13 4 8 12 13 6 4 6 9 9 3 7 9 22 42 66 63 66 58 47 45 47 48 49 58 62 62 62 49 41 47
20 26 29 31 31 35 44 50 46 42 38 9 11 8 8 8 9 9 8 7 16 12 11 13 7 8 5 1 4 6 7 2 6 7 11 5 31 70 68 63 47 40 37 36 34 14 16 30 36 36 34 31 33 45
18 22 26 32 36 34 48 49 49 62 10 9 9 8 13 18 14 14 26 27 34 19 10 8 6 10 6 6 6 4 7 8 9 9 5 28 69 87 85 70 35 39 29 11 13 15 7 14 24 25 24 21 20 40
19 22 23 25 37 54 44 63 62 22 9 10 10 5 11 4 11 5 9 8 2 16 18 6 3 2 7 5 6 12 6 12 7 5 30 57 76 77 54 22 8 16 18 5 8 16 8 3 10 15 16 17 37 57
14 25 28 34 51 71 76 66 25 10 9 6 12 25 29 25 25 28 11 15 5 7 4 2 6 8 2 6 6 7 8 5 16 47 71 75 64 45 8 10 24 25 25 22 24 20 18 12 10 21 16 32 34 42
20 27 28 44 75 65 53 18 9 12 10 22 11 21 29 24 20 24 22 14 8 6 7 4 4 5 7 7 6 4 10 38 60 43 62 62 19 10 26 27 25 30 31 34 33 29 26 31 33 39 38 42 53 48
30 41 43 51 56 29 8 14 8 6 18 14 26 31 33 35 38 34 23 21 21 12 5 6 8 7 7 11 3 31 55 60 58 57 29 4 7 21 15 21 26 27 28 33 28 26 29 45 45 39 41 39 30 28
45 43 47 37 24 7 7 7 12 9 9 9 14 22 20 20 27 29 29 29 22 8 10 8 8 9 14 32 49 59 62 57 46 18 18 9 23 26 18 20 24 31 29 26 29 28 32 33 33 25 29 32 32 33
36 41 37 23 3 3 6 8 12 10 9 11 10 16 11 15 17 20 26 30 22 11 8 22 38 52 62 61 63 47 19 14 9 10 12 8 16 18 20 25 25 22 20 26 29 28 27 25 29 29 24 20 23 26
27 40 26 16 4 6 10 13 10 6 9 11 9 16 7 5 8 13 18 19 11 14 22 44 49 38 26 20 5 18 21 12 10 10 8 13 16 20 23 20 16 17 14 17 19 21 21 22 23 22 21 27 32 22
24 29 5 8 10 10 11 17 13 12 7 5 7 6 5 8 10 20 9 8 13 12 9 10 12 26 14 23 32 24 18 20 19 11 10 15 17 18 21 20 16 19 19 19 18 18 18 19 17 21 29 26 21 17
16 12 10 12 22 7 7 7 9 7 6 4 5 5 8 13 12 4 3 3 8 10 17 5 10 7 26 29 16 3 4 7 9 12 9 7 7 8 11 15 18 20 20 20 19 19 20 21 25 27 25 22 18 12
7 7 8 6 7 5 6 5 5 4 4 5 3 4 3 4 4 4 1 10 12 12 15 7 13 18 12 10 6 13 7 3 9 14 10 14 16 18 16 10 8 11 15 11 10 10 12 11 11 12 11 13 13 15
5 8 7 5 4 6 4 4 3 4 3 1 6 6 4 2 6 7 2 12 9 11 11 20 27 15 15 13 16 16 16 13 10 8 8 10 9 15 15 8 10 4 4 12 24 13 16 13 12 10 7 5 9 16
5 7 9 11 10 13 7 13 11 5 1 4 1 3 2 7 5 2 1 2 7 14 12 16 20 22 25 21 21 18 9 8 15 14 13 11 16 15 12 9 5 3 3 4 4 11 8 9 8 5 4 7 10 14
9 8 7 1 6 7 7 7 5 3 2 7 9 2 5 6 4 11 6 14 16 14 18 20 17 20 21 25 17 19 15 7 10 19 18 17 18 10 3 2 4 8 1 2 2 3 7 4 13 9 6 7 9 8
10 11 8 7 7 7 5 4 7 10 9 7 7 7 8 15 19 18 17 15 15 19 20 20 20 17 14 17 15 20 19 12 2 3 5 9 3 5 6 4 6 6 6 7 3 1 2 3 6 6 2 2 4 4
8 16 6 6 1 5 8 25 48 56 61 61 53 53 51 41 31 27 22 18 19 19 17 15 21 20 20 21 19 18 18 15 9 12 9 5 7 13 8 8 6 8 7 9 4 2 4 6 6 5 5 6 6 8
6 6 2 14 10 31 44 47 48 47 49 52 52 52 39 35 32 28 23 20 19 18 18 21 25 28 26 23 20 14 11 15 4 10 18 11 2 4 11 15 9 8 15 14 11 15 7 2 9 7 3 2 2 8
26 24 11 9 11 38 40 38 36 43 43 43 35 38 34 32 21 24 22 17 19 20 22 25 27 31 32 30 23 20 17 16 14 13 20 25 21 20 20 18 14 8 5 5 6 4 2 3 8 4 5 5 3 4
20 21 13 8 6 5 14 13 7 7 13 11 13 25 22 12 10 9 15 18 24 20 19 18 17 19 23 28 27 27 27 28 28 27 26 25 25 22 20 23 24 19 13 12 12 11 12 9 9 9 10 9 8 9
Wind_Direction_500mb
254 254 251 253 256 252 247 252 265 267 266 273 264 258 261 259 271 250 251 245 233 250 260 267 272 289 291 284 261 327 333 352 338 290 186 218 192 217 182 196 183 187 172 196 144 217 291 343 341 201 266 129 135 168
253 254 252 248 252 250 248 247 256 266 261 257 265 261 250 251 261 240 248 255 246 247 258 252 260 261 252 249 286 280 279 311 299 338 346 314 293 276 172 227 216 232 207 210 187 210 232 282 258 279 232 228 222 226
249 252 247 248 250 248 247 250 257 256 260 256 253 259 244 250 249 250 262 254 249 259 272 261 262 262 263 248 237 246 258 265 101 35 338 272 272 173 222 235 227 264 139 199 128 261 226 246 224 260 267 261 222 240
246 243 243 245 245 246 243 250 253 250 249 252 245 248 247 245 247 247 260 249 241 251 274 271 265 266 226 222 227 235 250 262 274 289 301 270 255 239 269 276 221 221 37 177 267 269 161 200 223 268 272 274 269 253
242 241 244 245 246 249 244 245 242 240 241 241 241 237 241 247 244 255 253 249 239 235 302 295 288 278 258 239 234 228 237 242 241 238 207 246 252 277 242 276 224 205 197 197 233 224 208 257 302 302 268 261 286 274
244 249 248 248 248 243 238 240 235 235 241 240 240 236 234 234 239 248 258 263 249 233 298 296 285 284 273 221 221 227 230 229 214 199 221 232 232 231 249 255 211 240 247 248 261 272 265 275 279 282 279 259 254 254
245 238 235 232 235 231 230 232 233 235 229 233 235 223 220 219 212 211 210 172 79 195 251 286 277 276 300 264 233 234 230 229 228 222 223 232 245 225 256 262 195 243 261 263 261 272 271 266 263 263 272 271 271 250
234 234 235 236 237 235 236 232 229 225 226 216 216 219 220 206 220 243 234 245 194 202 230 265 272 302 308 246 221 213 212 224 232 239 231 235 242 215 252 272 240 256 260 258 257 255 260 264 270 270 264 257 267 252
230 233 237 235 232 226 225 226 220 219 218 206 207 199 187 200 218 252 246 251 283 228 250 247 279 281 346 11 258 184 193 178 222 204 227 227 222 235 248 249 253 254 250 255 262 264 264 260 265 266 262 258 250 249
238 237 227 221 215 219 222 222 215 204 198 195 183 170 185 209 194 170 188 198 217 215 229 247 233 255 329 3 340 332 194 224 251 241 209 219 241 249 253 256 259 265 265 265 261 254 251 252 255 263 263 262 257 252
232 226 228 223 221 213 211 208 193 188 168 173 166 161 160 141 165 200 190 218 198 233 219 237 227 243 258 189 233 330 292 296 300 280 182 253 258 248 260 258 267 270 273 266 257 254 255 253 255 257 256 257 258 258
233 228 223 221 216 209 199 185 177 184 173 171 142 129 163 171 209 210 180 225 214 239 209 200 242 217 245 216 179 222 240 26 257 292 267 264 254 304 311 305 294 303 301 298 280 260 258 254 245 244 249 257 256 239
225 218 215 206 211 206 205 193 181 182 183 142 151 146 167 175 198 221 199 200 237 226 216 194 186 236 206 214 205 158 222 240 323 244 250 244 298 333 330 323 313 302 306 322 309 266 257 253 243 241 245 240 229 242
220 217 215 209 198 185 191 192 191 190 149 144 159 179 198 185 237 205 211 204 228 253 284 226 222 189 101 45 200 214 239 344 258 240 238 272 325 322 317 311 313 292 312 339 353 351 254 230 227 223 236 240 251 249
212 205 201 201 196 192 179 183 192 181 138 163 168 207 211 230 256 261 264 261 263 290 277 284 262 187 158 214 222 232 226 238 230 245 264 329 321 317 317 321 302 298 323 356 52 80 151 182 203 211 237 249 251 213
177 178 189 189 189 186 174 168 166 148 135 167 216 268 229 285 275 272 297 316 79 14 325 249 224 211 215 219 222 214 225 227 251 285 310 318 311 313 320 338 312 336 13 129 142 166 175 200 134 172 259 252 159 173
173 187 154 162 152 156 160 156 138 143 184 210 240 237 248 273 266 274 269 304 288 178 188 170 261 227 201 228 229 214 223 236 310 318 308 309 308 316 315 70 57 53 56 106 148 156 156 159 198 212 172 154 163 167
126 141 149 150 153 150 151 139 138 177 216 224 228 244 229 242 259 275 287 270 224 219 187 228 230 235 245 241 228 261 330 314 305 305 304 312 311 144 88 68 82 81 80 98 105 111 128 126 131 117 127 131 124 117
138 137 143 150 165 149 115 177 193 225 240 235 243 258 267 272 272 277 268 246 231 233 230 229 253 230 228 240 295 314 301 294 295 313 327 102 136 148 106 111 111 96 93 97 97 118 131 126 110 111 118 132 142 150
133 135 137 134 142 132 147 168 186 240 248 236 230 245 242 254 264 257 246 224 213 215 226 229 229 229 244 277 282 285 290 294 292 300 63 75 122 103 97 105 119 117 118 116 108 119 137 134 122 122 131 133 133 140
144 156 163 164 151 318 215 221 216 235 249 245 237 211 242 242 244 239 240 229 219 213 252 255 269 273 273 276 283 292 274 295 207 140 137 167 121 106 112 108 100 96 108 122 119 111 109 117 127 124 122 121 132 136
165 167 178 194 280 268 261 240 231 244 227 240 231 201 217 239 235 219 203 188 212 226 236 257 273 283 290 290 194 129 65 108 125 144 149 128 87 85 73 90 110 112 124 133 127 125 132 132 140 136 126 136 140 136
168 183 215 233 234 238 249 225 208 216 225 206 175 189 214 217 225 168 190 217 227 215 257 300 350 30 118 137 132 143 85 79 117 93 89 111 96 99 94 89 95 110 110 111 117 132 136 142 146 145 146 150 157 155
171 196 229 219 205 244 235 231 228 231 222 210 210 204 198 200 177 167 92 325 271 360 64 77 292 86 118 133 162 113 360 72 113 66 117 176 139 111 106 104 110 117 113 113 120 128 134 138 144 147 157 170 186 213
266 232 249 265 251 246 244 235 232 230 246 227 229 82 90 122 103 102 5 351 344 37 46 151 114 114 106 77 43 64 96 64 91 83 102 142 149 152 147 127 124 172 182 167 166 163 158 174 193 201 212 229 245 230
222 230 219 254 239 220 242 260 220 211 231 258 48 99 150 102 59 62 77 248 344 35 71 67 157 121 109 82 76 74 72 99 91 40 81 140 100 166 179 177 195 164 202 236 225 229 213 211 204 203 197 194 209 216
259 258 246 247 263 287 256 254 253 259 78 97 143 201 193 78 69 259 281 130 61 138 78 71 118 97 77 73 72 73 88 94 117 142 124 126 145 166 183 193 205 139 60 130 170 206 226 230 221 203 202 190 192 197
248 268 256 246 242 251 292 301 315 343 13 154 153 77 70 90 171 135 132 97 84 97 81 85 72 95 70 59 67 56 60 100 130 118 117 126 131 129 96 333 167 169 103 117 140 235 351 287 225 256 272 227 215 239
236 249 233 215 222 263 269 293 325 351 355 93 87 60 54 78 97 107 100 85 57 114 76 73 73 86 76 61 67 42 55 69 103 15 1 23 147 113 170 119 159 143 135 169 159 356 6 190 205 215 342 284 257 322
243 196 230 262 230 61 42 95 91 91 91 91 95 96 89 85 92 92 84 87 78 74 64 56 56 56 58 48 40 31 32 39 55 86 56 36 43 28 5 259 274 238 206 172 204 210 170 162 164 187 243 266 281 290
124 202 67 73 60 93 106 105 103 104 101 93 93 92 86 89 84 80 83 78 68 64 70 67 59 49 38 37 31 24 50 47 122 46 36 41 87 350 2 34 37 336 312 303 286 256 224 95 75 67 135 140 295 322
106 96 79 53 68 110 112 108 103 103 104 103 99 97 89 76 62 50 61 82 75 65 64 50 47 48 41 43 51 54 61 67 73 66 55 61 71 78 72 68 63 35 339 289 254 205 163 159 163 130 59 42 44 348
102 108 104 70 89 107 119 107 78 68 66 63 65 98 77 63 67 52 60 70 72 62 57 53 56 53 48 61 69 74 78 80 79 75 67 61 61 62 58 59 58 53 60 71 65 61 68 82 92 86 68 42 27 11
Wind_Speed_850mb
47 47 42 39 40 40 36 31 30 32 29 27 31 38 34 33 29 33 35 32 37 26 47 38 32 28 23 10 4 15 16 4 8 2 6 8 8 12 10 11 13 14 11 8 6 6 15 10 4 13 5 4 5 3
45 43 42 42 43 43 40 36 31 33 34 31 27 30 32 29 31 33 35 30 32 44 26 24 41 44 42 39 22 10 8 9 5 4 4 6 5 2 8 13 5 13 15 11 17 13 7 5 9 11 8 12 15 12
45 44 43 41 43 41 38 37 35 34 32 32 30 27 30 31 30 32 35 36 27 35 54 66 65 69 62 55 47 18 9 9 4 19 8 5 9 0 5 9 7 4 5 8 2 5 7 3 3 8 9 8 7 6
45 43 43 42 44 42 41 39 39 35 33 31 29 29 29 32 28 32 35 38 33 15 12 18 16 19 28 38 47 63 59 51 44 38 4 6 4 1 5 6 5 9 4 5 6 6 4 9 4 8 10 12 11 10
42 40 41 43 42 44 44 41 37 33 32 31 29 27 27 25 28 22 23 31 34 26 10 23 51 53 44 50 47 49 43 47 42 11 10 7 8 8 8 3 12 11 9 7 10 13 6 15 23 20 21 18 16 15
41 47 46 42 39 39 40 37 35 33 32 31 35 34 29 23 21 17 6 18 31 29 11 7 23 44 33 36 42 55 62 48 38 20 13 16 35 13 8 17 13 31 47 54 46 51 49 54 42 40 42 38 29 30
32 31 32 33 33 31 31 34 37 30 32 31 25 26 28 28 23 19 5 6 13 21 8 12 12 14 19 14 42 54 42 44 41 22 17 23 13 14 7 33 8 19 22 35 45 42 55 61 37 32 34 35 34 33
33 32 33 33 32 34 34 29 31 29 26 28 28 29 26 23 22 27 26 27 12 12 10 6 8 14 2 5 9 21 34 38 27 23 8 12 23 20 16 7 22 50 64 77 81 87 90 76 71 62 51 47 52 47
33 31 33 34 35 35 33 30 32 33 29 29 26 23 23 20 15 24 17 17 19 14 6 7 5 7 18 9 5 10 15 5 14 7 21 17 10 15 13 36 48 57 61 65 69 72 75 76 79 74 71 65 65 64
38 34 29 28 29 30 34 37 33 31 30 29 31 17 9 9 15 17 16 14 14 13 13 9 10 9 13 12 7 9 5 5 3 9 9 9 23 66 86 86 84 82 81 75 63 60 69 75 72 69 68 63 58 61
31 33 31 28 26 26 28 32 39 37 46 44 17 11 16 12 24 12 8 8 10 8 15 16 33 16 20 2 2 6 5 4 5 7 3 6 9 21 62 77 83 84 86 94 96 98 94 84 70 69 70 56 52 54
32 34 37 37 36 34 29 36 37 52 47 35 20 22 17 9 8 5 7 5 8 8 11 11 15 19 10 14 8 7 5 0 9 4 5 7 8 23 34 44 46 56 56 62 68 83 83 84 77 69 58 57 48 41
25 25 27 33 36 43 47 38 43 59 33 38 12 11 10 8 8 9 11 6 6 8 13 13 4 8 12 13 6 4 6 9 9 3 7 9 22 42 66 63 66 58 47 45 47 48 49 58 62 62 62 49 41 47
20 26 29 31 31 35 44 50 46 42 38 9 11 8 8 8 9 9 8 7 16 12 11 13 7 8 5 1 4 6 7 2 6 7 11 5 31 70 68 63 47 40 37 36 34 14 16 30 36 36 34 31 33 45
18 22 26 32 36 34 48 49 49 62 10 9 9 8 13 18 14 14 26 27 34 19 10 8 6 10 6 6 6 4 7 8 9 9 5 28 69 87 85 70 35 39 29 11 13 15 7 14 24 25 24 21 20 40
19 22 23 25 37 54 44 63 62 22 9 10 10 5 11 4 11 5 9 8 2 16 18 6 3 2 7 5 6 12 6 12 7 5 30 57 76 77 54 22 8 16 18 5 8 16 8 3 10 15 16 17 37 57
14 25 28 34 51 71 76 66 25 10 9 6 12 25 29 25 25 28 11 15 5 7 4 2 6 8 2 6 6 7 8 5 16 47 71 75 64 45 8 10 24 25 25 22 24 20 18 12 10 21 16 32 34 42
20 27 28 44 75 65 53 18 9 12 10 22 11 21 29 24 20 24 22 14 8 6 7 4 4 5 7 7 6 4 10 38 60 43 62 62 19 10 26 27 25 30 31 34 33 29 26 31 33 39 38 42 53 48
30 41 43 51 56 29 8 14 8 6 18 14 26 31 33 35 38 34 23 21 21 12 5 6 8 7 7 11 3 31 55 60 58 57 29 4 7 21 15 21 26 27 28 33 28 26 29 45 45 39 41 39 30 28
45 43 47 37 24 7 7 7 12 9 9 9 14 22 20 20 27 29 29 29 22 8 10 8 8 9 14 32 49 59 62 57 46 18 18 9 23 26 18 20 24 31 29 26 29 28 32 33 33 25 29 32 32 33
36 41 37 23 3 3 6 8 12 10 9 11 10 16 11 15 17 20 26 30 22 11 8 22 38 52 62 61 63 47 19 14 9 10 12 8 16 18 20 25 25 22 20 26 29 28 27 25 29 29 24 20 23 26
27 40 26 16 4 6 10 13 10 6 9 11 9 16 7 5 8 13 18 19 11 14 22 44 49 38 26 20 5 18 21 12 10 10 8 13 16 20 23 20 16 17 14 17 19 21 21 22 23 22 21 27 32 22
24 29 5 8 10 10 11 17 13 12 7 5 7 6 5 8 10 20 9 8 13 12 9 10 12 26 14 23 32 24 18 20 19 11 10 15 17 18 21 20 16 19 19 19 18 18 18 19 17 21 29 26 21 17
16 12 10 12 22 7 7 7 9 7 6 4 5 5 8 13 12 4 3 3 8 10 17 5 10 7 26 29 16 3 4 7 9 12 9 7 7 8 11 15 18 20 20 20 19 19 20 21 25 27 25 22 18 12
7 7 8 6 7 5 6 5 5 4 4 5 3 4 3 4 4 4 1 10 12 12 15 7 13 18 12 10 6 13 7 3 9 14 10 14 16 18 16 10 8 11 15 11 10 10 12 11 11 12 11 13 13 15
5 8 7 5 4 6 4 4 3 4 3 1 6 6 4 2 6 7 2 12 9 11 11 20 27 15 15 13 16 16 16 13 10 8 8 10 9 15 15 8 10 4 4 12 24 13 16 13 12 10 7 5 9 16
5 7 9 11 10 13 7 13 11 5 1 4 1 3 2 7 5 2 1 2 7 14 12 16 20 22 25 21 21 18 9 8 15 14 13 11 16 15 12 9 5 3 3 4 4 11 8 9 8 5 4 7 10 14
9 8 7 1 6 7 7 7 5 3 2 7 9 2 5 6 4 11 6 14 16 14 18 20 17 20 21 25 17 19 15 7 10 19 18 17 18 10 3 2 4 8 1 2 2 3 7 4 13 9 6 7 9 8
10 11 8 7 7 7 5 4 7 10 9 7 7 7 8 15 19 18 17 15 15 19 20 20 20 17 14 17 15 20 19 12 2 3 5 9 3 5 6 4 6 6 6 7 3 1 2 3 6 6 2 2 4 4
8 16 6 6 1 5 8 25 48 56 61 61 53 53 51 41 31 27 22 18 19 19 17 15 21 20 20 21 19 18 18 15 9 12 9 5 7 13 8 8 6 8 7 9 4 2 4 6 6 5 5 6 6 8
6 6 2 14 10 31 44 47 48 47 49 52 52 52 39 35 32 28 23 20 19 18 18 21 25 28 26 23 20 14 11 15 4 10 18 11 2 4 11 15 9 8 15 14 11 15 7 2 9 7 3 2 2 8
26 24 11 9 11 38 40 38 36 43 43 43 35 38 34 32 21 24 22 17 19 20 22 25 27 31 32 30 23 20 17 16 14 13 20 25 21 20 20 18 14 8 5 5 6 4 2 3 8 4 5 5 3 4
20 21 13 8 6 5 14 13 7 7 13 11 13 25 22 12 10 9 15 18 24 20 19 18 17 19 23 28 27 27 27 28 28 27 26 25 25 22 20 23 24 19 13 12 12 11 12 9 9 9 10 9 8 9
Wind_Direction_850mb
254 254 251 253 256 252 247 252 265 267 266 273 264 258 261 259 271 250 251 245 233 250 260 267 272 289 291 284 261 327 333 352 338 290 186 218 192 217 182 196 183 187 172 196 144 217 291 343 341 201 266 129 135 168
253 254 252 248 252 250 248 247 256 266 261 257 265 261 250 251 261 240 248 255 246 247 258 252 260 261 252 249 286 280 279 311 299 338 346 314 293 276 172 227 216 232 207 210 187 210 232 282 258 279 232 228 222 226
249 252 247 248 250 248 247 250 257 256 260 256 253 259 244 250 249 250 262 254 249 259 272 261 262 262 263 248 237 246 258 265 101 35 338 272 272 173 222 235 227 264 139 199 128 261 226 246 224 260 267 261 222 240
246 243 243 245 245 246 243 250 253 250 249 252 245 248 247 245 247 247 260 249 241 251 274 271 265 266 226 222 227 235 250 262 274 289 301 270 255 239 269 276 221 221 37 177 267 269 161 200 223 268 272 274 269 253
242 241 244 245 246 249 244 245 242 240 241 241 241 237 241 247 244 255 253 249 239 235 302 295 288 278 258 239 234 228 237 242 241 238 207 246 252 277 242 276 224 205 197 197 233 224 208 257 302 302 268 261 286 274
244 249 248 248 248 243 238 240 235 235 241 240 240 236 234 234 239 248 258 263 249 233 298 296 285 284 273 221 221 227 230 229 214 199 221 232 232 231 249 255 211 240 247 248 261 272 265 275 279 282 279 259 254 254
245 238 235 232 235 231 230 232 233 235 229 233 235 223 220 219 212 211 210 172 79 195 251 286 277 276 300 264 233 234 230 229 228 222 223 232 245 225 256 262 195 243 261 263 261 272 271 266 263 263 272 271 271 250
234 234 235 236 237 235 236 232 229 225 226 216 216 219 220 206 220 243 234 245 194 202 230 265 272 302 308 246 221 213 212 224 232 239 231 235 242 215 252 272 240 256 260 258 257 255 260 264 270 270 264 257 267 252
230 233 237 235 232 226 225 226 220 219 218 206 207 199 187 200 218 252 246 251 283 228 250 247 279 281 346 11 258 184 193 178 222 204 227 227 222 235 248 249 253 254 250 255 262 264 264 260 265 266 262 258 250 249
238 237 227 221 215 219 222 222 215 204 198 195 183 170 185 209 194 170 188 198 217 215 229 247 233 255 329 3 340 332 194 224 251 241 209 219 241 249 253 256 259 265 265 265 261 254 251 252 255 263 263 262 257 252
232 226 228 223 221 213 211 208 193 188 168 173 166 161 160 141 165 200 190 218 198 233 219 237 227 243 258 189 233 330 292 296 300 280 182 253 258 248 260 258 267 270 273 266 257 254 255 253 255 257 256 257 258 258
233 228 223 221 216 209 199 185 177 184 173 171 142 129 163 171 209 210 180 225 214 239 209 200 242 217 245 216 179 222 240 26 257 292 267 264 254 304 311 305 294 303 301 298 280 260 258 254 245 244 249 257 256 239
225 218 215 206 211 206 205 193 181 182 183 142 151 146 167 175 198 221 199 200 237 226 216 194 186 236 206 214 205 158 222 240 323 244 250 244 298 333 330 323 313 302 306 322 309 266 257 253 243 241 245 240 229 242
220 217 215 209 198 185 191 192 191 190 149 144 159 179 198 185 237 205 211 204 228 253 284 226 222 189 101 45 200 214 239 344 258 240 238 272 325 322 317 311 313 292 312 339 353 351 254 230 227 223 236 240 251 249
212 205 201 201 196 192 179 183 192 181 138 163 168 207 211 230 256 261 264 261 263 290 277 284 262 187 158 214 222 232 226 238 230 245 264 329 321 317 317 321 302 298 323 356 52 80 151 182 203 211 237 249 251 213
177 178 189 189 189 186 174 168 166 148 135 167 216 268 229 285 275 272 297 316 79 14 325 249 224 211 215 219 222 214 225 227 251 285 310 318 311 313 320 338 312 336 13 129 142 166 175 200 134 172 259 252 159 173
173 187 154 162 152 156 160 156 138 143 184 210 240 237 248 273 266 274 269 304 288 178 188 170 261 227 201 228 229 214 223 236 310 318 308 309 308 316 315 70 57 53 56 106 148 156 156 159 198 212 172 154 163 167
126 141 149 150 153 150 151 139 138 177 216 224 228 244 229 242 259 275 287 270 224 219 187 228 230 235 245 241 228 261 330 314 305 305 304 312 311 144 88 68 82 81 80 98 105 111 128 126 131 117 127 131 124 117
138 137 143 150 165 149 115 177 193 225 240 235 243 258 267 272 272 277 268 246 231 233 230 229 253 230 228 240 295 314 301 294 295 313 327 102 136 148 106 111 111 96 93 97 97 118 131 126 110 111 118 132 142 150
133 135 137 134 142 132 147 168 186 240 248 236 230 245 242 254 264 257 246 224 213 215 226 229 229 229 244 277 282 285 290 294 292 300 63 75 122 103 97 105 119 117 118 116 108 119 137 134 122 122 131 133 133 140
144 156 163 164 151 318 215 221 216 235 249 245 237 211 242 242 244 239 240 229 219 213 252 255 269 273 273 276 283 292 274 295 207 140 137 167 121 106 112 108 100 96 108 122 119 111 109 117 127 124 122 121 132 136
165 167 178 194 280 268 261 240 231 244 227 240 231 201 217 239 235 219 203 188 212 226 236 257 273 283 290 290 194 129 65 108 125 144 149 128 87 85 73 90 110 112 124 133 127 125 132 132 140 136 126 136 140 136
168 183 215 233 234 238 249 225 208 216 225 206 175 189 214 217 225 168 190 217 227 215 257 300 350 30 118 137 132 143 85 79 117 93 89 111 96 99 94 89 95 110 110 111 117 132 136 142 146 145 146 150 157 155
171 196 229 219 205 244 235 231 228 231 222 210 210 204 198 200 177 167 92 325 271 360 64 77 292 86 118 133 162 113 360 72 113 66 117 176 139 111 106 104 110 117 113 113 120 128 134 138 144 147 157 170 186 213
266 232 249 265 251 246 244 235 232 230 246 227 229 82 90 122 103 102 5 351 344 37 46 151 114 114 106 77 43 64 96 64 91 83 102 142 149 152 147 127 124 172 182 167 166 163 158 174 193 201 212 229 245 230
222 230 219 254 239 220 242 260 220 211 231 258 48 99 150 102 59 62 77 248 344 35 71 67 157 121 109 82 76 74 72 99 91 40 81 140 100 166 179 177 195 164 202 236 225 229 213 211 204 203 197 194 209 216
259 258 246 247 263 287 256 254 253 259 78 97 143 201 193 78 69 259 281 130 61 138 78 71 118 97 77 73 72 73 88 94 117 142 124 126 145 166 183 193 205 139 60 130 170 206 226 230 221 203 202 190 192 197
248 268 256 246 242 251 292 301 315 343 13 154 153 77 70 90 171 135 132 97 84 97 81 85 72 95 70 59 67 56 60 100 130 118 117 126 131 129 96 333 167 169 103 117 140 235 351 287 225 256 272 227 215 239
236 249 233 215 222 263 269 293 325 351 355 93 87 60 54 78 97 107 100 85 57 114 76 73 73 86 76 61 67 42 55 69 103 15 1 23 147 113 170 119 159 143 135 169 159 356 6 190 205 215 342 284 257 322
243 196 230 262 230 61 42 95 91 91 91 91 95 96 89 85 92 92 84 87 78 74 64 56 56 56 58 48 40 31 32 39 55 86 56 36 43 28 5 259 274 238 206 172 204 210 170 162 164 187 243 266 281 290
124 202 67 73 60 93 106 105 103 104 101 93 93 92 86 89 84 80 83 78 68 64 70 67 59 49 38 37 31 24 50 47 122 46 36 41 87 350 2 34 37 336 312 303 286 256 224 95 75 67 135 140 295 322
106 96 79 53 68 110 112 108 103 103 104 103 99 97 89 76 62 50 61 82 75 65 64 50 47 48 41 43 51 54 61 67 73 66 55 61 71 78 72 68 63 35 339 289 254 205 163 159 163 130 59 42 44 348
102 108 104 70 89 107 119 107 78 68 66 63 65 98 77 63 67 52 60 70 72 62 57 53 56 53 48 61 69 74 78 80 79 75 67 61 61 62 58 59 58 53 60 71 65 61 68 82 92 86 68 42 27 11